GW4718 Weather Reports


time (UTC)temp
F
wind
direction
speed
knots
gust
knots
rain 1hr
in
rain 24hr
in
rain mn
in
humidity
%
barometer
mb
20260904091838 67 54 0.0 0.0 0.00 0.21 0.21 99 1020.3
20260904091333 67 48 0.0 1.7 0.00 0.21 0.21 99 1020.4
20260904090828 67 319 0.0 0.0 0.00 0.21 0.21 99 1020.1
20260904090324 67 56 0.0 0.0 0.00 0.21 0.21 99 1019.9
20260904085818 67 43 0.0 0.0 0.00 0.21 0.21 99 1020.0
20260904085313 67 89 0.9 1.7 0.00 0.21 0.21 99 1020.1
20260904084808 67 5 0.0 0.0 0.00 0.21 0.21 99 1020.1
20260904084304 67 74 0.0 0.0 0.00 0.21 0.21 99 1020.1
20260904083800 67 68 1.7 2.6 0.00 0.21 0.21 99 1020.3
20260904083257 67 68 0.0 0.0 0.00 0.21 0.21 99 1020.4
20260904082756 67 27 0.0 0.0 0.00 0.21 0.21 99 1020.3
20260904082251 67 101 0.0 0.0 0.00 0.21 0.21 99 1020.6
20260904081747 67 105 0.0 0.0 0.00 0.21 0.21 99 1020.5
20260904081242 67 234 0.0 0.0 0.00 0.21 0.21 99 1020.4
20260904080737 67 64 0.0 0.0 0.00 0.21 0.21 99 1020.5
20260904080228 67 300 0.0 0.0 0.00 0.21 0.21 99 1020.1
20260904075725 67 335 0.0 0.9 0.00 0.21 0.21 99 1020.1
20260904075224 67 279 0.0 0.0 0.00 0.21 0.21 99 1020.5
20260904074723 67 20 0.0 0.0 0.00 0.21 0.21 99 1020.5
20260904074218 67 220 0.0 0.0 0.00 0.21 0.21 99 1020.5
20260904073714 68 5 0.0 0.0 0.00 0.21 0.21 99 1020.6
20260904073210 68 1 0.0 0.0 0.00 0.21 0.21 99 1020.3
20260904072705 68 22 0.0 0.0 0.00 0.21 0.21 99 1020.1
20260904072200 68 35 0.0 0.0 0.00 0.21 0.21 99 1020.1
20260904071656 68 329 0.0 0.0 0.00 0.21 0.21 99 1020.0
20260904071150 68 60 0.0 0.0 0.00 0.21 0.21 99 1020.1
20260904070649 68 90 0.0 0.0 0.00 0.21 0.21 99 1020.0
20260904070143 68 104 0.0 0.0 0.00 0.21 0.21 99 1019.8
20260904065638 68 324 0.0 0.0 0.00 0.21 0.21 99 1019.9
20260904065136 68 78 0.0 0.0 0.00 0.21 0.21 99 1019.8
20260904064631 68 72 0.0 0.0 0.00 0.21 0.21 99 1019.7
20260904064130 68 50 0.0 0.0 0.00 0.21 0.21 99 1020.1
20260904063626 68 44 0.0 0.0 0.00 0.21 0.21 99 1020.0
20260904063121 68 35 0.0 0.0 0.00 0.21 0.21 99 1020.0
20260904062618 68 35 0.0 0.0 0.00 0.21 0.21 99 1020.1
20260904062113 68 43 0.0 0.0 0.00 0.21 0.21 99 1020.0
20260904061609 68 57 0.0 0.0 0.00 0.21 0.21 99 1020.0
20260904061105 68 196 0.0 0.0 0.00 0.21 0.21 99 1019.9
20260904060601 68 192 0.0 0.0 0.00 0.21 0.21 99 1020.3
20260904060057 68 93 0.0 0.0 0.00 0.21 0.21 99 1020.3
20260904055552 69 112 0.0 0.0 0.00 0.21 0.21 99 1020.5
20260904055047 69 93 0.0 0.0 0.00 0.21 0.21 99 1020.5
20260904054543 69 275 0.0 0.0 0.00 0.21 0.21 99 1020.5
20260904054038 69 232 0.0 0.0 0.00 0.21 0.21 99 1021.1
20260904053538 69 302 0.0 0.0 0.00 0.21 0.21 99 1020.9
20260904053033 69 269 0.0 0.0 0.00 0.21 0.21 99 1021.2
20260904052529 69 198 0.0 0.0 0.00 0.21 0.21 99 1021.3
20260904052025 69 250 0.0 0.0 0.00 0.21 0.21 99 1021.6
20260904051522 70 155 0.0 0.0 0.00 0.21 0.21 99 1021.6
20260904051020 70 192 0.9 1.7 0.00 0.21 0.21 99 1021.9
20260904050517 70 156 0.9 1.7 0.00 0.21 0.21 99 1021.8
20260904050013 70 209 2.6 3.5 0.00 0.21 0.21 99 1022.3
20260904045507 70 229 1.7 5.2 0.05 0.21 0.21 98 1021.9
20260904045002 70 38 5.2 6.1 0.31 0.21 0.21 98 1021.7
20260904044458 70 12 0.0 0.0 0.50 0.20 0.20 98 1022.7
20260904043954 71 70 2.6 3.5 0.31 0.15 0.15 98 1022.9
20260904043450 71 226 0.0 0.9 0.71 0.12 0.12 96 1022.9
20260904042946 73 41 1.7 3.5 0.54 0.09 0.09 94 1022.1
20260904042442 74 187 0.9 1.7 0.00 0.00 0.00 91 1022.6
20260904041936 74 19 0.0 0.9 0.00 0.00 0.00 89 1022.2
20260904041433 74 207 0.0 0.9 0.00 0.00 0.00 89 1022.4
20260904040929 74 13 0.9 1.7 0.00 0.00 0.00 88 1022.5
20260904040429 74 265 0.9 0.9 0.00 0.00 0.00 91 1022.3
20260904035925 74 6 0.0 1.7 0.00 0.00 0.00 91 1022.1
20260904035421 73 89 1.7 3.5 0.00 0.00 0.00 92 1022.5
20260904034920 72 37 1.7 3.5 0.00 0.00 0.00 99 1022.6
20260904034415 71 25 0.0 0.0 0.00 0.00 0.00 99 1022.2
20260904033911 72 318 0.0 0.0 0.00 0.00 0.00 99 1022.2
20260904033407 71 76 0.0 0.0 0.00 0.00 0.00 99 1021.9
20260904032903 71 70 0.0 0.0 0.00 0.00 0.00 99 1021.9
20260904032358 71 112 0.0 0.0 0.00 0.00 0.00 99 1022.2
20260904031852 71 186 0.0 0.0 0.00 0.00 0.00 99 1022.1
20260904031347 72 256 0.0 0.0 0.00 0.00 0.00 99 1022.3
20260904030844 71 156 0.0 0.0 0.00 0.00 0.00 99 1022.3
20260904030339 71 218 0.0 0.0 0.00 0.00 0.00 99 1022.4
20260904025834 71 78 0.0 0.0 0.00 0.00 0.00 99 1022.3
20260904025330 71 67 0.0 0.0 0.00 0.00 0.00 99 1022.4
20260904024824 71 100 0.0 0.0 0.00 0.00 0.00 99 1022.3
20260904024319 71 100 0.0 0.0 0.00 0.00 0.00 99 1021.8
20260904023816 71 88 0.0 0.0 0.00 0.00 0.00 99 1021.5
20260904023312 71 186 0.0 0.0 0.00 0.00 0.00 99 1021.4
20260904022810 71 172 0.0 0.0 0.00 0.00 0.00 99 1021.3
20260904022308 71 97 0.0 0.0 0.00 0.00 0.00 99 1021.4
20260904021804 71 157 0.0 0.0 0.00 0.00 0.00 99 1021.5
20260904021258 72 224 0.0 0.0 0.00 0.00 0.00 99 1021.5
20260904020754 72 124 0.0 0.0 0.00 0.00 0.00 99 1021.8
20260904020254 72 180 0.0 0.0 0.00 0.00 0.00 99 1021.9
20260904015752 72 180 0.0 0.0 0.00 0.00 0.00 99 1021.7
20260904015248 72 116 0.0 0.0 0.00 0.00 0.00 99 1021.5
20260904014746 73 107 0.0 0.0 0.00 0.00 0.00 99 1021.5
20260904014241 73 95 0.0 0.0 0.00 0.00 0.00 99 1021.3
20260904013737 73 84 0.0 0.0 0.00 0.00 0.00 98 1021.3
20260904013233 73 85 0.0 0.0 0.00 0.00 0.00 98 1021.2
20260904012729 73 83 0.0 0.0 0.00 0.00 0.00 98 1020.9
20260904012228 73 227 0.0 0.0 0.00 0.00 0.00 97 1021.1
20260904011727 73 119 0.0 0.0 0.00 0.00 0.00 98 1020.8
20260904011223 73 138 0.0 0.0 0.00 0.00 0.00 97 1020.9
20260904010718 74 247 0.0 0.0 0.00 0.00 0.00 97 1020.9
20260904010215 74 132 0.0 0.0 0.00 0.00 0.00 97 1020.9
20260904005710 74 91 0.0 0.0 0.00 0.00 0.00 97 1020.9
20260904005206 74 68 0.0 0.0 0.00 0.00 0.00 97 1020.9
20260904004701 74 198 0.0 0.0 0.00 0.00 0.00 96 1020.9
20260904004200 75 180 0.0 0.0 0.00 0.00 0.00 95 1020.8
20260904003650 75 242 0.0 0.0 0.00 0.00 0.00 95 1021.0
20260904003147 75 113 0.0 0.0 0.00 0.00 0.00 95 1020.8
20260904002643 76 263 0.0 0.0 0.00 0.00 0.00 94 1020.9
20260904002138 76 113 0.0 0.0 0.00 0.00 0.00 94 1020.8
20260904001632 77 193 0.0 0.0 0.00 0.00 0.00 93 1020.8
20260904001131 77 166 0.0 0.0 0.00 0.00 0.00 91 1020.8
20260904000627 77 93 0.0 0.0 0.00 0.00 0.00 92 1020.7
20260904000122 78 171 0.0 0.0 0.00 0.00 0.00 92 1020.9
20260903235622 78 64 0.0 0.0 0.00 0.00 0.00 90 1020.8
20260903235118 79 169 0.0 0.0 0.00 0.00 0.00 89 1020.7
20260903234612 80 67 0.0 0.0 0.00 0.00 0.00 86 1020.8
20260903234108 81 47 0.0 0.0 0.00 0.00 0.00 87 1020.9
20260903233605 81 30 0.0 1.7 0.00 0.00 0.00 83 1021.0
20260903233100 81 17 0.0 0.0 0.00 0.00 0.00 84 1020.8
20260903232555 82 13 0.0 0.0 0.00 0.00 0.00 83 1020.9
20260903232050 82 34 0.9 1.7 0.00 0.00 0.00 81 1020.7
20260903231544 82 33 1.7 2.6 0.00 0.00 0.00 82 1020.4
20260903231038 83 336 0.0 0.0 0.00 0.00 0.00 82 1020.5
20260903230535 83 33 0.0 0.0 0.00 0.00 0.00 79 1020.4
20260903230033 83 44 0.9 1.7 0.00 0.00 0.00 78 1020.0
20260903225531 84 24 0.0 1.7 0.00 0.00 0.00 78 1020.1
20260903225028 84 19 0.9 0.9 0.00 0.00 0.00 78 1020.0
20260903224523 85 14 0.0 0.0 0.00 0.00 0.00 76 1020.1
20260903224019 86 16 0.9 0.9 0.00 0.00 0.00 74 1019.8
20260903223519 86 4 0.9 0.9 0.00 0.00 0.00 72 1019.8
20260903223018 87 1 0.9 0.9 0.00 0.00 0.00 71 1019.6
20260903222513 87 350 0.0 0.0 0.00 0.00 0.00 73 1019.6
20260903222012 87 357 0.0 0.0 0.00 0.00 0.00 74 1019.6
20260903221508 87 325 0.0 0.0 0.00 0.00 0.00 75 1019.6
20260903221005 87 3 0.9 1.7 0.00 0.00 0.00 75 1019.7
20260903220459 86 333 0.0 0.0 0.00 0.00 0.00 77 1019.6
20260903215956 85 28 0.0 0.0 0.00 0.00 0.00 77 1019.4
20260903215453 85 48 1.7 2.6 0.00 0.00 0.00 76 1019.6
20260903214951 84 20 0.0 0.0 0.00 0.00 0.00 78 1019.7
20260903214447 84 32 0.9 1.7 0.00 0.00 0.00 77 1019.8
20260903213946 84 48 1.7 1.7 0.00 0.00 0.00 78 1019.6
20260903213442 84 38 0.0 0.9 0.00 0.00 0.00 77 1019.7
20260903212938 84 57 0.9 1.7 0.00 0.00 0.00 78 1019.6
20260903212434 83 60 1.7 2.6 0.00 0.00 0.00 78 1019.7
20260903211928 83 76 0.9 1.7 0.00 0.00 0.00 81 1019.4
20260903211424 83 70 0.9 2.6 0.00 0.00 0.00 79 1019.7
20260903210920 84 89 0.9 0.9 0.00 0.00 0.00 80 1019.6
20260903210419 85 114 0.0 0.9 0.00 0.00 0.00 79 1019.7
20260903205915 86 13 0.0 0.0 0.00 0.00 0.00 74 1019.6
20260903205415 86 37 0.9 1.7 0.00 0.00 0.00 74 1019.9
20260903204909 87 26 0.0 0.9 0.00 0.00 0.00 71 1019.6
20260903204405 88 13 0.0 0.9 0.00 0.00 0.00 68 1019.8
20260903203901 88 266 0.9 0.9 0.00 0.00 0.00 66 1019.9
20260903203356 87 10 0.0 1.7 0.00 0.00 0.00 70 1020.1
20260903202855 87 46 0.0 1.7 0.00 0.00 0.00 70 1020.5
20260903202352 87 22 0.0 1.7 0.00 0.00 0.00 69 1020.6
20260903201852 87 22 0.9 0.9 0.00 0.00 0.00 69 1020.7
20260903201347 86 357 0.0 0.9 0.00 0.00 0.00 71 1020.7
20260903200846 87 22 0.0 1.7 0.00 0.00 0.00 69 1020.6
20260903200341 86 352 0.9 1.7 0.00 0.00 0.00 71 1020.8
20260903195836 85 11 0.9 0.9 0.00 0.00 0.00 72 1020.7
20260903195333 85 3 0.9 1.7 0.00 0.00 0.00 73 1020.9
20260903194827 84 22 0.9 3.5 0.00 0.00 0.00 73 1021.1
20260903194322 83 15 1.7 2.6 0.00 0.00 0.00 74 1021.0
20260903193818 83 16 1.7 2.6 0.00 0.00 0.00 75 1021.2
20260903193314 84 24 2.6 3.5 0.00 0.00 0.00 73 1021.3
20260903192809 86 13 2.6 3.5 0.00 0.00 0.00 72 1021.4
20260903192306 87 352 0.9 1.7 0.00 0.00 0.00 70 1021.2
20260903191800 87 352 0.9 1.7 0.00 0.00 0.00 69 1021.2
20260903191256 88 351 2.6 2.6 0.00 0.00 0.00 69 1021.3
20260903190750 86 21 0.9 1.7 0.00 0.00 0.00 69 1021.5
20260903190245 85 13 0.0 0.0 0.00 0.00 0.00 72 1021.7
20260903185740 84 113 0.9 1.7 0.00 0.00 0.00 75 1021.6
20260903185239 84 18 0.0 0.0 0.00 0.00 0.00 73 1021.5
20260903184736 83 23 0.9 0.9 0.00 0.00 0.00 75 1021.9
20260903184231 83 340 0.0 0.0 0.00 0.00 0.00 77 1021.6
20260903183726 82 236 0.0 1.7 0.00 0.00 0.00 77 1021.9
20260903183221 82 352 0.0 1.7 0.00 0.00 0.00 77 1021.6
20260903182719 83 5 0.9 5.2 0.00 0.00 0.00 76 1021.6
20260903182215 83 17 2.6 3.5 0.00 0.00 0.00 74 1021.8
20260903181713 83 2 2.6 3.5 0.00 0.00 0.00 75 1021.7
20260903181208 84 15 4.3 6.1 0.00 0.00 0.00 73 1021.8
20260903180704 84 13 3.5 6.1 0.00 0.00 0.00 75 1022.2
20260903180158 83 27 4.3 5.2 0.00 0.00 0.00 75 1021.8
20260903175657 85 7 3.5 6.1 0.00 0.00 0.00 73 1022.1
20260903175156 84 10 1.7 5.2 0.00 0.00 0.00 74 1022.1
20260903174651 83 348 2.6 5.2 0.00 0.00 0.00 74 1021.9
20260903174146 83 10 3.5 5.2 0.00 0.00 0.00 73 1022.1
20260903173641 88 6 2.6 3.5 0.00 0.00 0.00 62 1022.3
20260903173137 90 50 0.0 2.6 0.00 0.00 0.00 58 1022.2
20260903172638 90 287 1.7 1.7 0.00 0.00 0.00 59 1022.1
20260903172133 89 91 1.7 2.6 0.00 0.00 0.00 57 1022.2
20260903171632 89 128 3.5 3.5 0.00 0.00 0.00 59 1021.9
20260903171128 88 212 3.5 8.7 0.00 0.00 0.00 57 1022.2
20260903170627 86 213 1.7 5.2 0.00 0.00 0.00 62 1022.3
20260903170123 87 320 0.0 1.7 0.00 0.00 0.00 60 1022.3
20260903165621 88 16 1.7 2.6 0.00 0.00 0.00 61 1022.2
20260903165115 90 269 0.0 2.6 0.00 0.00 0.00 57 1022.2
20260903164610 89 246 1.7 2.6 0.00 0.00 0.00 62 1022.3
20260903164107 88 284 1.7 2.6 0.00 0.00 0.00 61 1022.4
20260903163606 87 341 1.7 3.5 0.00 0.00 0.00 59 1022.5
20260903163102 87 239 1.7 2.6 0.00 0.00 0.00 65 1022.3
20260903162558 87 161 1.7 1.7 0.00 0.00 0.00 64 1022.5
20260903162054 88 242 1.7 2.6 0.00 0.00 0.00 60 1022.6
20260903161549 88 271 0.9 5.2 0.00 0.00 0.00 59 1022.4
20260903161045 88 124 2.6 7.8 0.00 0.00 0.00 59 1022.2
20260903160544 89 213 2.6 3.5 0.00 0.00 0.00 64 1022.6
20260903160039 88 190 3.5 6.1 0.00 0.00 0.00 59 1022.5
20260903155537 88 263 3.5 5.2 0.00 0.00 0.00 61 1022.7
20260903155033 88 207 1.7 5.2 0.00 0.00 0.00 62 1022.5
20260903154530 88 359 1.7 2.6 0.00 0.00 0.00 61 1022.5
20260903154026 87 264 2.6 5.2 0.00 0.00 0.00 64 1022.5
20260903153520 86 150 4.3 6.1 0.00 0.00 0.00 66 1022.3
20260903153016 87 194 0.9 5.2 0.00 0.00 0.00 62 1022.5
20260903152512 86 227 0.9 0.9 0.00 0.00 0.00 64 1022.6
20260903152008 86 79 0.9 1.7 0.00 0.00 0.00 70 1022.6
20260903151507 86 200 0.9 1.7 0.00 0.00 0.00 66 1022.7
20260903151002 85 216 0.9 3.5 0.00 0.00 0.00 74 1022.6
20260903150457 82 90 2.6 5.2 0.00 0.00 0.00 75 1022.6
20260903145952 84 82 2.6 3.5 0.00 0.00 0.00 76 1022.6
20260903145447 84 221 0.9 2.6 0.00 0.00 0.00 69 1022.4
20260903144942 83 278 1.7 2.6 0.00 0.00 0.00 76 1022.6
20260903144441 83 129 0.9 1.7 0.00 0.00 0.00 78 1022.5
20260903143937 83 95 0.0 1.7 0.00 0.00 0.00 78 1022.6
20260903143434 82 101 1.7 1.7 0.00 0.00 0.00 80 1022.5
20260903142929 82 23 0.0 0.0 0.00 0.00 0.00 80 1022.7
20260903142425 82 55 1.7 1.7 0.00 0.00 0.00 80 1022.7
20260903141921 81 67 0.0 0.9 0.00 0.00 0.00 82 1022.7
20260903141416 79 100 1.7 1.7 0.00 0.00 0.00 85 1022.6
20260903140912 79 275 0.0 0.9 0.00 0.00 0.00 86 1022.5
20260903140406 78 62 0.0 0.9 0.00 0.00 0.00 86 1022.8
20260903135901 78 58 0.0 0.0 0.00 0.00 0.00 88 1022.6
20260903135352 77 32 0.0 2.6 0.00 0.00 0.00 89 1022.5
20260903134850 77 77 0.9 1.7 0.00 0.00 0.00 89 1022.9
20260903134345 78 82 0.9 1.7 0.00 0.00 0.00 87 1022.9
20260903133843 79 15 0.0 0.0 0.00 0.00 0.00 84 1022.7
20260903133339 78 70 0.9 1.7 0.00 0.00 0.00 85 1022.8
20260903132834 79 245 0.0 0.0 0.00 0.00 0.00 83 1022.8
20260903132330 78 65 1.7 1.7 0.00 0.00 0.00 86 1022.9
20260903131825 77 169 0.0 0.0 0.00 0.00 0.00 86 1022.9
20260903131324 76 49 0.9 1.7 0.00 0.00 0.00 88 1023.0
20260903130823 76 240 0.9 1.7 0.00 0.00 0.00 87 1023.0
20260903130318 75 146 1.7 1.7 0.00 0.00 0.00 88 1022.8
20260903125817 76 197 1.7 2.6 0.00 0.00 0.00 90 1023.0
20260903125313 74 116 1.7 2.6 0.00 0.00 0.00 90 1023.2
20260903124812 74 207 0.9 1.7 0.00 0.00 0.00 93 1023.3
20260903124308 74 214 1.7 2.6 0.00 0.00 0.00 91 1023.1
20260903123806 73 223 0.0 1.7 0.00 0.00 0.00 92 1023.3
20260903123306 73 213 1.7 2.6 0.00 0.00 0.00 92 1023.4
20260903122804 72 214 0.9 2.6 0.00 0.00 0.00 92 1023.1
20260903122259 71 168 0.9 2.6 0.00 0.00 0.00 93 1023.2
20260903121757 70 189 0.0 0.0 0.00 0.00 0.00 96 1023.3
20260903121253 70 168 0.9 0.9 0.00 0.00 0.00 96 1023.4
20260903120749 69 238 0.0 1.7 0.00 0.00 0.00 97 1023.2
20260903120247 70 159 0.9 1.7 0.00 0.00 0.00 96 1023.0
20260903115747 69 106 0.0 0.0 0.00 0.00 0.00 96 1023.2
20260903115242 70 261 0.9 1.7 0.00 0.00 0.00 96 1023.2
20260903114741 69 105 0.9 0.9 0.00 0.00 0.00 97 1023.3
20260903114238 69 140 0.9 0.9 0.00 0.00 0.00 97 1023.3
20260903113732 69 109 0.0 1.7 0.00 0.00 0.00 96 1023.1
20260903113229 70 91 1.7 5.2 0.00 0.00 0.00 94 1023.1
20260903112724 69 118 0.0 1.7 0.00 0.00 0.00 96 1023.0
20260903112220 69 107 1.7 1.7 0.00 0.00 0.00 97 1022.9
20260903111719 69 351 0.0 1.7 0.00 0.00 0.00 97 1022.9
20260903111214 69 210 1.7 2.6 0.00 0.00 0.00 96 1022.8
20260903110710 69 235 0.9 2.6 0.00 0.00 0.00 97 1022.7
20260903110206 69 121 0.9 1.7 0.00 0.00 0.00 97 1022.6
20260903105705 69 245 1.7 2.6 0.00 0.00 0.00 96 1022.6
20260903105200 69 111 0.9 0.9 0.00 0.00 0.00 97 1022.6
20260903104700 69 343 0.0 0.0 0.00 0.00 0.00 96 1022.3
20260903104155 69 65 2.6 3.5 0.00 0.00 0.00 96 1022.5
20260903103651 69 280 0.0 0.9 0.00 0.00 0.00 95 1022.5
20260903103147 69 56 2.6 5.2 0.00 0.00 0.00 95 1022.3
20260903102642 69 235 0.0 1.7 0.00 0.00 0.00 96 1022.3
20260903102142 69 155 0.0 0.9 0.00 0.00 0.00 95 1022.2
20260903101641 70 100 0.0 1.7 0.00 0.00 0.00 94 1022.2
20260903101137 71 221 0.9 1.7 0.00 0.00 0.00 93 1022.1
20260903100632 69 109 2.6 3.5 0.00 0.00 0.00 94 1022.1
20260903100131 69 193 0.0 1.7 0.00 0.00 0.00 95 1021.9
20260903095629 69 226 2.6 3.5 0.00 0.00 0.00 95 1022.1
20260903095128 69 196 0.0 0.9 0.00 0.00 0.00 95 1021.9
20260903094623 70 173 0.9 1.7 0.00 0.00 0.00 94 1022.1
20260903094119 71 221 2.6 3.5 0.00 0.00 0.00 93 1021.8
20260903093614 69 71 3.5 3.5 0.00 0.00 0.00 96 1021.8
20260903093109 69 244 1.7 2.6 0.00 0.00 0.00 96 1021.8
20260903092608 68 249 0.9 1.7 0.00 0.00 0.00 97 1021.7
20260903092103 68 333 0.0 1.7 0.00 0.00 0.00 97 1021.9